Wind from 230 at 4 knots

Air temperature 8.0° C
Dewpoint 2.0° C

Last reported at 2014-Apr-19 20:20 UTC.
Time now 2014-Apr-19 22:12 UTC

Location: N 61°57' E 028°57'.
View on Google Maps.

See reports from other nearby stations

Tides Stations Pressure Air Temp Water Temp Dewpoint Dewpoint depression Visibility Wind Speed Wind Dir Waves Ship positions

  
sailing weather and tide predictions

SAVONLINNA weather

date/time (UTC)wind fromknots sea level pressurealtimeterstation pressurevisibilityair tempwater tempwave heightnotes
2014-Apr-19 20:50 220 4 8.0
2014-Apr-19 20:20 230 4 8.0
2014-Apr-19 19:50 220 5 8.0
2014-Apr-19 19:20 220 3 9.0
2014-Apr-19 18:50 210 3 9.0
2014-Apr-19 18:20 210 2 9.0
2014-Apr-19 17:50 220 3 10.0
2014-Apr-19 17:20 220 3 11.0
2014-Apr-19 16:50 230 4 12.0
2014-Apr-19 16:20 240 5 12.0
2014-Apr-19 15:50 240 7 13.0
2014-Apr-19 15:20 230 6 14.0
2014-Apr-19 14:50 230 10 14.0
2014-Apr-19 14:20 240 8 14.0
2014-Apr-19 13:50 240 9 13.0
2014-Apr-19 13:20 240 7 14.0
2014-Apr-19 12:50 210 6 14.0
2014-Apr-19 12:20 13.0
2014-Apr-19 11:50 240 10 14.0
2014-Apr-19 11:20 220 7 13.0
2014-Apr-19 10:50 230 9 13.0
2014-Apr-19 10:20 230 9 5.412.0
2014-Apr-19 09:50 240 8 13.0
2014-Apr-19 09:20 240 7 12.0
2014-Apr-19 08:50 240 8 11.0
2014-Apr-19 08:20 230 8 11.0
2014-Apr-19 07:50 220 9 10.0
2014-Apr-19 07:20 230 6 9.0
2014-Apr-19 06:50 240 4 8.0
2014-Apr-19 06:20 230 5 8.0
2014-Apr-19 05:50 230 4 7.0
2014-Apr-19 05:20 210 4 6.0
2014-Apr-19 04:50 210 5 5.0
2014-Apr-19 04:20 220 5 4.0
2014-Apr-19 03:50 200 4 3.0
2014-Apr-19 03:20 220 2 1.0
2014-Apr-19 02:50 190 3 -0.0
2014-Apr-19 02:20 190 1 -0.0
2014-Apr-19 01:50 200 3 -0.0
2014-Apr-19 01:20 200 3 1.0
2014-Apr-19 00:50 200 4 2.0
2014-Apr-19 00:20 210 4 3.0
2014-Apr-18 23:50 210 4 3.0
2014-Apr-18 23:20 210 4 5.0
2014-Apr-18 22:50 200 4 6.0
2014-Apr-18 22:20 190 4 7.0
2014-Apr-18 21:50 240 1 5.0
2014-Apr-18 21:20 5.0
2014-Apr-18 20:50 150 1 6.0
2014-Apr-18 20:20 260 1 5.0
2014-Apr-18 19:50 150 2 6.0
2014-Apr-18 19:20 120 1 6.0
2014-Apr-18 18:50 7.0
2014-Apr-18 18:20 8.0
2014-Apr-18 17:50 310 2 5.4 9.0 Light rain showers.
2014-Apr-18 17:20 320 4 10.0
2014-Apr-18 16:50 300 4 11.0
2014-Apr-18 16:20 200 5 5.411.0
2014-Apr-18 15:50 180 5 12.0
2014-Apr-18 15:20 180 6 12.0
2014-Apr-18 14:50 180 6 12.0
2014-Apr-18 14:20 170 5 12.0
2014-Apr-18 13:50 200 7 13.0
2014-Apr-18 13:20 190 8 13.0
2014-Apr-18 12:50 180 6 13.0
2014-Apr-18 12:20 180 8 12.0
2014-Apr-18 11:50 170 9 13.0
2014-Apr-18 11:20 170 10 12.0
2014-Apr-18 10:50 180 7 13.0
2014-Apr-18 10:20 190 9 12.0
2014-Apr-18 09:50 180 10 11.0
2014-Apr-18 09:20 170 10 11.0
2014-Apr-18 08:50 170 9 10.0
2014-Apr-18 08:20 170 9 10.0
2014-Apr-18 07:50 170 8 9.0
2014-Apr-18 07:20 170 9 8.0
2014-Apr-18 06:50 170 8 8.0
2014-Apr-18 06:20 180 6 8.0
2014-Apr-18 05:50 180 8 7.0
2014-Apr-18 05:20 180 7 gusting 17 7.0
2014-Apr-18 04:50 170 10 7.0
2014-Apr-18 04:20 170 9 6.0
2014-Apr-18 03:50 170 7 6.0
2014-Apr-18 03:20 160 7 5.0
2014-Apr-18 02:50 160 8 5.0
2014-Apr-18 02:20 160 7 5.0
2014-Apr-18 01:50 160 8 6.0
2014-Apr-18 01:20 170 7 6.0
2014-Apr-18 00:50 170 7 6.0
2014-Apr-18 00:20 170 7 6.0
2014-Apr-17 23:50 190 7 6.0
2014-Apr-17 23:20 180 7 6.0
2014-Apr-17 22:50 190 8 7.0
2014-Apr-17 22:20 190 9 7.0